Wilmington, DE

3:20 AM EDT on October 15, 2019 (GMT -0400)
New Castle County

Weather History for KILG - September, 2019

Change the Weather History Date:

Saturday, September 21, 2019

  Actual Average Record
Temperature  
Mean Temperature 71 °F 66 °F  
Max Temperature 87 °F 76 °F 97 °F (1895)
Min Temperature 54 °F 56 °F 37 °F (1956)
Degree Days  
Heating Degree Days 0 2  
Month to date heating degree days 6 19  
Since 1 July heating degree days 6 21  
Cooling Degree Days 6 3  
Month to date cooling degree days 157 114  
Year to date cooling degree days 1387 1107  
Growing Degree Days 18 (Base 50)    
Moisture  
Dew Point 58 °F    
Average Humidity 69    
Maximum Humidity 100    
Minimum Humidity 37    
Precipitation  
Precipitation 0.00 in 0.16 in 2.76 in (1983)
Month to date precipitation 0.29 2.91  
Year to date precipitation 36.41 31.67  
Snow  
Snow 0.00 in 0.00 in 0.00 in (1894)
Month to date snowfall 0.0 0.0  
Since 1 July snowfall 0.0 0.0  
Since 1 September snowfall 0.0 0.0  
Snow Depth 0.00 in    
Sea Level Pressure  
Sea Level Pressure 30.23 in    
Wind  
Wind Speed 3 mph (SW)    
Max Wind Speed 13 mph    
Max Gust Speed 21 mph    
Visibility 8 miles    
Events Fog    
T = Trace of Precipitation, MM = Missing Value Source: NWS Daily Summary

Daily Weather History Graph

Daily Weather History Graph

Search for Another Location

Airport or City:

Astronomy

Sep. 21, 2019 Rise Set
Actual Time 6:48 AM EDT 7:01 PM EDT
Civil Twilight 6:21 AM EDT 7:28 PM EDT
Nautical Twilight 5:50 AM EDT 7:59 PM EDT
Astronomical Twilight 5:18 AM EDT 8:31 PM EDT
Moon 11:38 PM EDT (9/21) 1:51 PM EDT (9/21)
Length of Visible Light 13h 06m
Length of Day
12h 12m
Waning Gibbous, 55% of the Moon is Illuminated
Sep 21
Waning Gibbous
Sep 21
Last Quarter
Sep 28
New
Oct 5
First Quarter
Oct 13
Full

Hourly Weather History & Observations

Time (EDT) Temp. Heat Index Dew Point Humidity Pressure Visibility Wind Dir Wind Speed Gust Speed Precip Events Conditions
12:51 AM 60.1 °F - 54.0 °F 80% 30.24 in 10.0 mi West 5.8 mph - N/A   Clear
1:51 AM 59.0 °F - 54.0 °F 83% 30.25 in 10.0 mi West 3.5 mph - N/A   Clear
2:51 AM 57.0 °F - 54.0 °F 89% 30.24 in 10.0 mi Calm Calm - N/A   Clear
3:51 AM 57.0 °F - 55.0 °F 93% 30.24 in 10.0 mi Calm Calm - N/A   Clear
4:51 AM 57.0 °F - 55.0 °F 93% 30.23 in 10.0 mi Calm Calm - N/A   Clear
5:39 AM 55.9 °F - 54.0 °F 93% 30.24 in 10.0 mi Calm Calm - N/A   Scattered Clouds
5:47 AM 53.6 °F - 53.6 °F 100% 30.24 in 10.0 mi Calm Calm - N/A   Mostly Cloudy
5:51 AM 54.0 °F - 53.1 °F 97% 30.24 in 10.0 mi Calm Calm - N/A   Mostly Cloudy
6:19 AM 55.9 °F - 55.0 °F 97% 30.24 in 1.8 mi Calm Calm - N/A   Mostly Cloudy
6:29 AM 55.0 °F - 55.0 °F 100% 30.25 in 3.0 mi Calm Calm - N/A   Overcast
6:33 AM 55.0 °F - 55.0 °F 100% 30.25 in 1.8 mi NW 3.5 mph - N/A   Overcast
6:38 AM 55.0 °F - 54.0 °F 96% 30.25 in 0.2 mi Calm Calm - N/A Fog Fog
6:51 AM 55.0 °F - 55.0 °F 100% 30.25 in 0.2 mi Calm Calm - N/A Fog Fog
7:51 AM 57.0 °F - 57.0 °F 100% 30.25 in 0.2 mi Calm Calm - N/A Fog Fog
8:18 AM 59.0 °F - 59.0 °F 100% 30.25 in 0.2 mi Calm Calm - N/A Fog Fog
8:34 AM 60.1 °F - 60.1 °F 100% 30.26 in 0.5 mi Calm Calm - N/A Fog Fog
8:41 AM 60.1 °F - 60.1 °F 100% 30.26 in 1.2 mi WSW 3.5 mph - N/A   Clear
8:48 AM 60.8 °F - 60.8 °F 100% 30.26 in 7.0 mi WSW 3.5 mph - N/A   Scattered Clouds
8:51 AM 61.0 °F - 61.0 °F 100% 30.26 in 9.0 mi WSW 3.5 mph - N/A   Clear
8:58 AM 62.1 °F - 61.0 °F 96% 30.26 in 10.0 mi Calm Calm - N/A   Partly Cloudy
9:51 AM 71.1 °F - 61.0 °F 70% 30.26 in 10.0 mi West 5.8 mph - N/A   Clear
10:51 AM 73.9 °F - 60.1 °F 62% 30.25 in 10.0 mi Calm Calm - N/A   Clear
11:51 AM 80.1 °F 80.6 °F 57.9 °F 47% 30.25 in 10.0 mi WSW 4.6 mph - N/A   Clear
12:51 PM 82.9 °F 82.4 °F 57.0 °F 41% 30.22 in 10.0 mi Calm Calm - N/A   Clear
1:51 PM 84.9 °F 83.7 °F 55.9 °F 37% 30.20 in 10.0 mi Variable 4.6 mph - N/A   Clear
2:51 PM 84.9 °F 83.9 °F 57.0 °F 38% 30.18 in 10.0 mi North - - N/A   Clear
3:51 PM 84.9 °F 83.9 °F 57.0 °F 38% 30.17 in 10.0 mi SSE 11.5 mph - N/A   Clear
4:51 PM 84.0 °F 83.3 °F 57.0 °F 40% 30.17 in 10.0 mi SSE 9.2 mph - N/A   Clear
5:51 PM 82.0 °F 82.1 °F 59.0 °F 45% 30.17 in 10.0 mi SSE 8.1 mph - N/A   Clear
6:51 PM 77.0 °F - 62.1 °F 60% 30.17 in 10.0 mi South 8.1 mph - N/A   Clear
7:51 PM 73.9 °F - 66.0 °F 76% 30.18 in 10.0 mi South 8.1 mph - N/A   Clear
8:51 PM 71.1 °F - 63.0 °F 75% 30.18 in 10.0 mi South 6.9 mph - N/A   Clear
9:51 PM 70.0 °F - 61.0 °F 73% 30.20 in 10.0 mi Calm Calm - N/A   Clear
10:51 PM 66.9 °F - 60.1 °F 79% 30.20 in 10.0 mi Calm Calm - N/A   Clear
11:51 PM 66.9 °F - 61.0 °F 81% 30.20 in 10.0 mi Calm Calm - N/A   Clear